,,,PA_Meas_PMT16A,,PR_Meas_QMR101_102,,RH_Meas_QMH101,,SR_Meas_QMS101,,TA_Meas_QMH101,,GenWind,,GenWind,
date,time,status,PA,status,PR,status,RH,status,SR,status,TA,status,DirAvg,status,SpdAvg,
2010-12-16, 00:00:04,VALID,1007.28,VALID,0,VALID,103.237,VALID,0,VALID,25.2903,VALID,107,VALID,0,
2010-12-16, 00:01:04,VALID,1007.26,VALID,0,VALID,103.314,VALID,0.105969,VALID,25.3098,VALID,107,VALID,0,
2010-12-16, 00:02:04,VALID,1007.25,VALID,0,VALID,103.352,VALID,0.105969,VALID,25.3098,VALID,107,VALID,0,
2010-12-16, 00:03:04,VALID,1007.26,VALID,0,VALID,103.337,VALID,0.105969,VALID,25.2708,VALID,107,VALID,0,
2010-12-16, 00:04:04,VALID,1007.25,VALID,0,VALID,103.367,VALID,0.105969,VALID,25.2708,VALID,107,VALID,0,
2010-12-16, 00:05:04,VALID,1007.23,VALID,0,VALID,103.39,VALID,0.105969,VALID,25.2513,VALID,107,VALID,0,
2010-12-16, 00:06:04,VALID,1007.24,VALID,0,VALID,103.413,VALID,0.105969,VALID,25.2337,VALID,107,VALID,0,
2010-12-16, 00:07:04,VALID,1007.23,VALID,0,VALID,103.451,VALID,0.105969,VALID,25.1733,VALID,106,VALID,0.385156,
2010-12-16, 00:08:04,VALID,1007.24,VALID,0,VALID,103.497,VALID,0.105969,VALID,25.1538,VALID,76,VALID,0.498828,
2010-12-16, 00:09:04,VALID,1007.24,VALID,0,VALID,103.504,VALID,0.105969,VALID,25.1343,VALID,76,VALID,0.325,
2010-12-16, 00:10:04,VALID,1007.24,VALID,0,VALID,103.573,VALID,0.105969,VALID,25.1148,VALID,76,VALID,0.260156,
2010-12-16, 00:11:04,VALID,1007.23,VALID,0,VALID,103.619,VALID,0.105969,VALID,25.0954,VALID,76,VALID,0.375781,
2010-12-16, 00:12:04,VALID,1007.24,VALID,0,VALID,103.649,VALID,0.105969,VALID,25.0954,VALID,60,VALID,0.367578,
2010-12-16, 00:13:04,VALID,1007.2,VALID,0,VALID,103.695,VALID,0.105969,VALID,25.1148,VALID,60,VALID,0.147656,
2010-12-16, 00:14:04,VALID,1007.19,VALID,0,VALID,103.703,VALID,0.105969,VALID,25.1148,VALID,60,VALID,0,
2010-12-16, 00:15:04,VALID,1007.2,VALID,0,VALID,103.733,VALID,0.105969,VALID,25.1148,VALID,60,VALID,0.0613281,
2010-12-16, 00:16:04,VALID,1007.19,VALID,0,VALID,103.733,VALID,0.105969,VALID,25.1148,VALID,60,VALID,0.144141,
2010-12-16, 00:17:04,VALID,1007.15,VALID,0,VALID,103.733,VALID,0.105969,VALID,25.1148,VALID,60,VALID,0.0257812,
2010-12-16, 00:18:04,VALID,1007.17,VALID,0,VALID,103.726,VALID,0.105969,VALID,25.1343,VALID,60,VALID,0.000390625,
2010-12-16, 00:19:04,VALID,1007.12,VALID,0,VALID,103.733,VALID,0.105969,VALID,25.1148,VALID,60,VALID,0,
2010-12-16, 00:20:04,VALID,1007.14,VALID,0,VALID,103.71,VALID,0.105969,VALID,25.1343,VALID,60,VALID,0,
2010-12-16, 00:21:04,VALID,1007.12,VALID,0,VALID,103.733,VALID,0.105969,VALID,25.1343,VALID,60,VALID,0,
2010-12-16, 00:22:04,VALID,1007.13,VALID,0,VALID,103.764,VALID,0.105969,VALID,25.1538,VALID,60,VALID,0,
2010-12-16, 00:23:04,VALID,1007.11,VALID,0,VALID,103.741,VALID,0.105969,VALID,25.1129,VALID,60,VALID,0,
2010-12-16, 00:24:04,VALID,1007.12,VALID,0,VALID,103.748,VALID,0,VALID,25.1343,VALID,60,VALID,0,
2010-12-16, 00:25:04,VALID,1007.11,VALID,0,VALID,103.756,VALID,0.105969,VALID,25.1148,VALID,60,VALID,0,
2010-12-16, 00:26:04,VALID,1007.11,VALID,0,VALID,103.748,VALID,0.105969,VALID,25.1148,VALID,60,VALID,0,
2010-12-16, 00:27:04,VALID,1007.1,VALID,0,VALID,103.741,VALID,0.105969,VALID,25.0954,VALID,60,VALID,0,
2010-12-16, 00:28:04,VALID,1007.1,VALID,0,VALID,103.741,VALID,0.105969,VALID,25.0759,VALID,60,VALID,0,
2010-12-16, 00:29:04,VALID,1007.06,VALID,0,VALID,103.718,VALID,0.105969,VALID,25.0564,VALID,60,VALID,0,
2010-12-16, 00:30:04,VALID,1007.07,VALID,0,VALID,103.764,VALID,0.105969,VALID,25.0759,VALID,60,VALID,0,
2010-12-16, 00:31:04,VALID,1007.09,VALID,0,VALID,103.748,VALID,0.105969,VALID,25.0564,VALID,60,VALID,0,
2010-12-16, 00:32:04,VALID,1007.08,VALID,0,VALID,103.764,VALID,0.105969,VALID,25.0564,VALID,60,VALID,0,
2010-12-16, 00:33:04,VALID,1007.06,VALID,0,VALID,103.787,VALID,0.105969,VALID,25.0564,VALID,60,VALID,0,
2010-12-16, 00:34:04,VALID,1007.08,VALID,0,VALID,103.817,VALID,0.105969,VALID,25.0564,VALID,60,VALID,0,
2010-12-16, 00:35:04,VALID,1007.05,VALID,0.5,VALID,103.809,VALID,0.105969,VALID,25.0174,VALID,60,VALID,0,
2010-12-16, 00:36:04,VALID,1007.05,VALID,0,VALID,103.817,VALID,0.105969,VALID,24.9979,VALID,60,VALID,0,
2010-12-16, 00:37:04,VALID,1007.04,VALID,0,VALID,103.825,VALID,0.105969,VALID,24.9979,VALID,60,VALID,0,
2010-12-16, 00:38:04,VALID,1007.06,VALID,0,VALID,103.825,VALID,0,VALID,24.9784,VALID,60,VALID,0,
2010-12-16, 00:39:04,VALID,1007.05,VALID,0,VALID,103.87,VALID,0.105969,VALID,24.9589,VALID,60,VALID,0,
2010-12-16, 00:40:04,VALID,1007.02,VALID,0,VALID,103.87,VALID,0.105969,VALID,24.9589,VALID,49,VALID,0.359766,
2010-12-16, 00:41:04,VALID,1007.02,VALID,0,VALID,103.886,VALID,0.105969,VALID,24.9394,VALID,48,VALID,0.392969,
2010-12-16, 00:42:04,VALID,1006.97,VALID,0,VALID,103.878,VALID,0.105969,VALID,24.9394,VALID,48,VALID,0.220703,
2010-12-16, 00:43:04,VALID,1006.94,VALID,0,VALID,103.909,VALID,0.105969,VALID,24.9199,VALID,48,VALID,0.126953,
2010-12-16, 00:44:04,VALID,1006.93,VALID,0,VALID,103.916,VALID,0.105969,VALID,24.9199,VALID,48,VALID,0,
2010-12-16, 00:45:04,VALID,1006.95,VALID,0,VALID,103.931,VALID,0.105969,VALID,24.9004,VALID,48,VALID,0,
2010-12-16, 00:46:04,VALID,1006.91,VALID,0,VALID,103.916,VALID,0.105969,VALID,24.9004,VALID,48,VALID,0,
2010-12-16, 00:47:04,VALID,1006.89,VALID,0,VALID,103.916,VALID,0.105969,VALID,24.8809,VALID,48,VALID,0,
2010-12-16, 00:48:04,VALID,1006.85,VALID,0,VALID,103.939,VALID,0.105969,VALID,24.8809,VALID,48,VALID,0,
2010-12-16, 00:49:04,VALID,1006.87,VALID,0,VALID,103.924,VALID,0.105969,VALID,24.8809,VALID,48,VALID,0,
2010-12-16, 00:50:04,VALID,1006.89,VALID,0,VALID,103.939,VALID,0.105969,VALID,24.8615,VALID,48,VALID,0,
2010-12-16, 00:51:04,VALID,1006.86,VALID,0,VALID,103.954,VALID,0.105969,VALID,24.842,VALID,48,VALID,0,
2010-12-16, 00:52:04,VALID,1006.89,VALID,0,VALID,103.947,VALID,0.105969,VALID,24.842,VALID,48,VALID,0,
2010-12-16, 00:53:04,VALID,1006.86,VALID,0,VALID,103.954,VALID,0.105969,VALID,24.842,VALID,48,VALID,0,
2010-12-16, 00:54:04,VALID,1006.89,VALID,0,VALID,103.954,VALID,0,VALID,24.842,VALID,48,VALID,0,
2010-12-16, 00:55:04,VALID,1006.87,VALID,0,VALID,103.962,VALID,0,VALID,24.8225,VALID,48,VALID,0,
2010-12-16, 00:56:04,VALID,1006.86,VALID,0,VALID,103.947,VALID,0,VALID,24.8244,VALID,48,VALID,0,
2010-12-16, 00:57:04,VALID,1006.82,VALID,0,VALID,103.97,VALID,0,VALID,24.8244,VALID,48,VALID,0,
2010-12-16, 00:58:04,VALID,1006.85,VALID,0,VALID,103.947,VALID,0,VALID,24.8049,VALID,48,VALID,0,
2010-12-16, 00:59:04,VALID,1006.85,VALID,0,VALID,103.97,VALID,0,VALID,24.764,VALID,48,VALID,0,
2010-12-16, 01:00:04,VALID,1006.87,VALID,0,VALID,103.962,VALID,0,VALID,24.764,VALID,48,VALID,0,
2010-12-16, 01:01:04,VALID,1006.85,VALID,0,VALID,103.954,VALID,0,VALID,24.7445,VALID,48,VALID,0,
2010-12-16, 01:02:04,VALID,1006.85,VALID,0,VALID,103.97,VALID,0,VALID,24.7445,VALID,48,VALID,0,
2010-12-16, 01:03:04,VALID,1006.86,VALID,0,VALID,103.962,VALID,0,VALID,24.725,VALID,48,VALID,0,
2010-12-16, 01:04:04,VALID,1006.82,VALID,0,VALID,103.962,VALID,0,VALID,24.7269,VALID,48,VALID,0,
2010-12-16, 01:05:04,VALID,1006.81,VALID,0,VALID,103.977,VALID,0,VALID,24.725,VALID,48,VALID,0,
2010-12-16, 01:06:04,VALID,1006.78,VALID,0,VALID,103.992,VALID,0,VALID,24.725,VALID,48,VALID,0,
2010-12-16, 01:07:04,VALID,1006.77,VALID,0,VALID,103.962,VALID,0,VALID,24.7659,VALID,48,VALID,0,
2010-12-16, 01:08:04,VALID,1006.74,VALID,0,VALID,103.962,VALID,0,VALID,24.7464,VALID,48,VALID,0,
2010-12-16, 01:09:04,VALID,1006.68,VALID,0,VALID,103.992,VALID,0,VALID,24.7464,VALID,48,VALID,0,
2010-12-16, 01:10:04,VALID,1006.66,VALID,0,VALID,103.962,VALID,0,VALID,24.7269,VALID,48,VALID,0,
2010-12-16, 01:11:04,VALID,1006.68,VALID,0,VALID,103.962,VALID,0.105969,VALID,24.7055,VALID,48,VALID,0,
2010-12-16, 01:12:04,VALID,1006.7,VALID,0,VALID,103.97,VALID,0.105969,VALID,24.7055,VALID,48,VALID,0,
2010-12-16, 01:13:04,VALID,1006.67,VALID,0,VALID,103.985,VALID,0,VALID,24.7055,VALID,48,VALID,0,
2010-12-16, 01:14:04,VALID,1006.64,VALID,0,VALID,103.97,VALID,0,VALID,24.7055,VALID,48,VALID,0,
2010-12-16, 01:15:04,VALID,1006.63,VALID,0,VALID,103.977,VALID,0.105969,VALID,24.725,VALID,48,VALID,0,
2010-12-16, 01:16:04,VALID,1006.61,VALID,0,VALID,103.97,VALID,0.105969,VALID,24.7055,VALID,48,VALID,0,
2010-12-16, 01:17:04,VALID,1006.59,VALID,0,VALID,103.985,VALID,0,VALID,24.686,VALID,48,VALID,0,
2010-12-16, 01:18:04,VALID,1006.59,VALID,0,VALID,103.992,VALID,0,VALID,24.686,VALID,48,VALID,0,
2010-12-16, 01:19:04,VALID,1006.56,VALID,0,VALID,103.977,VALID,0,VALID,24.686,VALID,48,VALID,0,
2010-12-16, 01:20:04,VALID,1006.57,VALID,0,VALID,103.985,VALID,0,VALID,24.6666,VALID,48,VALID,0,
2010-12-16, 01:21:04,VALID,1006.54,VALID,0,VALID,104,VALID,0.105969,VALID,24.6471,VALID,48,VALID,0,
2010-12-16, 01:22:04,VALID,1006.55,VALID,0,VALID,103.992,VALID,0.105969,VALID,24.6684,VALID,48,VALID,0,
2010-12-16, 01:23:04,VALID,1006.51,VALID,0,VALID,103.97,VALID,0.105969,VALID,24.6489,VALID,48,VALID,0,
2010-12-16, 01:24:04,VALID,1006.5,VALID,0,VALID,103.977,VALID,0.105969,VALID,24.6471,VALID,48,VALID,0,
2010-12-16, 01:25:04,VALID,1006.49,VALID,0,VALID,104,VALID,0,VALID,24.6276,VALID,48,VALID,0,
2010-12-16, 01:26:04,VALID,1006.49,VALID,0,VALID,103.977,VALID,0,VALID,24.6489,VALID,48,VALID,0,
2010-12-16, 01:27:04,VALID,1006.46,VALID,0,VALID,103.985,VALID,0.105969,VALID,24.6276,VALID,48,VALID,0,
2010-12-16, 01:28:04,VALID,1006.48,VALID,0,VALID,103.992,VALID,0,VALID,24.6081,VALID,48,VALID,0,
2010-12-16, 01:29:04,VALID,1006.46,VALID,0,VALID,103.985,VALID,0.105969,VALID,24.6276,VALID,48,VALID,0,
2010-12-16, 01:30:04,VALID,1006.48,VALID,0,VALID,103.97,VALID,0,VALID,24.6294,VALID,48,VALID,0,
2010-12-16, 01:31:04,VALID,1006.52,VALID,0,VALID,103.977,VALID,0,VALID,24.6489,VALID,48,VALID,0,
2010-12-16, 01:32:04,VALID,1006.51,VALID,0,VALID,103.954,VALID,0.105969,VALID,24.6489,VALID,48,VALID,0,
2010-12-16, 01:33:04,VALID,1006.48,VALID,0,VALID,103.962,VALID,0,VALID,24.6684,VALID,48,VALID,0,
2010-12-16, 01:34:04,VALID,1006.49,VALID,0,VALID,103.947,VALID,0,VALID,24.6684,VALID,48,VALID,0,
2010-12-16, 01:35:04,VALID,1006.5,VALID,0,VALID,103.939,VALID,0.105969,VALID,24.6276,VALID,48,VALID,0,
2010-12-16, 01:36:04,VALID,1006.52,VALID,0,VALID,103.985,VALID,0,VALID,24.6276,VALID,48,VALID,0,
2010-12-16, 01:37:04,VALID,1006.51,VALID,0,VALID,103.977,VALID,0,VALID,24.6081,VALID,48,VALID,0,
2010-12-16, 01:38:04,VALID,1006.5,VALID,0,VALID,103.977,VALID,0.105969,VALID,24.6294,VALID,48,VALID,0,
2010-12-16, 01:39:04,VALID,1006.51,VALID,0,VALID,103.985,VALID,0.105969,VALID,24.6294,VALID,48,VALID,0,
2010-12-16, 01:40:04,VALID,1006.49,VALID,0,VALID,103.954,VALID,0,VALID,24.6294,VALID,48,VALID,0,
2010-12-16, 01:41:04,VALID,1006.46,VALID,0,VALID,103.924,VALID,0,VALID,24.6099,VALID,48,VALID,0,
2010-12-16, 01:42:04,VALID,1006.43,VALID,0,VALID,103.962,VALID,0,VALID,24.6099,VALID,48,VALID,0,
2010-12-16, 01:43:04,VALID,1006.44,VALID,0,VALID,103.97,VALID,0,VALID,24.5905,VALID,48,VALID,0,
2010-12-16, 01:44:04,VALID,1006.45,VALID,0,VALID,103.977,VALID,0,VALID,24.5923,VALID,48,VALID,0,
2010-12-16, 01:45:04,VALID,1006.45,VALID,0,VALID,103.985,VALID,0,VALID,24.5515,VALID,48,VALID,0,
2010-12-16, 01:46:04,VALID,1006.42,VALID,0,VALID,103.985,VALID,0,VALID,24.532,VALID,48,VALID,0,
2010-12-16, 01:47:04,VALID,1006.41,VALID,0,VALID,103.992,VALID,0,VALID,24.5533,VALID,48,VALID,0,
2010-12-16, 01:48:04,VALID,1006.41,VALID,0,VALID,103.992,VALID,0,VALID,24.5533,VALID,64,VALID,0.372656,
2010-12-16, 01:49:04,VALID,1006.39,VALID,0,VALID,104,VALID,0,VALID,24.5125,VALID,53,VALID,0.759766,
2010-12-16, 01:50:04,VALID,1006.41,VALID,0,VALID,104,VALID,0,VALID,24.5125,VALID,48,VALID,0.444141,
2010-12-16, 01:51:04,VALID,1006.39,VALID,0,VALID,104,VALID,0,VALID,24.5125,VALID,49,VALID,0.00234375,
2010-12-16, 01:52:04,VALID,1006.39,VALID,0,VALID,103.992,VALID,0,VALID,24.5125,VALID,52,VALID,0.00351562,
2010-12-16, 01:53:04,VALID,1006.38,VALID,0,VALID,103.985,VALID,0,VALID,24.5338,VALID,52,VALID,0.311328,
2010-12-16, 01:54:04,VALID,1006.38,VALID,0,VALID,103.992,VALID,0,VALID,24.5144,VALID,52,VALID,0.11875,
2010-12-16, 01:55:04,VALID,1006.38,VALID,0,VALID,104,VALID,0,VALID,24.4911,VALID,85,VALID,0.559766,
2010-12-16, 01:56:04,VALID,1006.36,VALID,0,VALID,103.992,VALID,0,VALID,24.4911,VALID,85,VALID,0.360938,
2010-12-16, 01:57:04,VALID,1006.38,VALID,0,VALID,104,VALID,0,VALID,24.4911,VALID,63,VALID,0.342578,
2010-12-16, 01:58:04,VALID,1006.37,VALID,0,VALID,104,VALID,0,VALID,24.493,VALID,67,VALID,0.327734,
2010-12-16, 01:59:04,VALID,1006.37,VALID,0,VALID,104,VALID,0,VALID,24.4911,VALID,67,VALID,0.0078125,
2010-12-16, 02:00:04,VALID,1006.34,VALID,0,VALID,104,VALID,0,VALID,24.4911,VALID,67,VALID,0.05625,
2010-12-16, 02:01:04,VALID,1006.32,VALID,0,VALID,104,VALID,0.105969,VALID,24.4717,VALID,67,VALID,0.102734,
2010-12-16, 02:02:04,VALID,1006.31,VALID,0,VALID,104,VALID,0.105969,VALID,24.4911,VALID,67,VALID,0,
2010-12-16, 02:03:04,VALID,1006.28,VALID,0,VALID,104,VALID,0,VALID,24.493,VALID,67,VALID,0,
2010-12-16, 02:04:04,VALID,1006.28,VALID,0,VALID,104,VALID,0,VALID,24.4717,VALID,67,VALID,0,
2010-12-16, 02:05:04,VALID,1006.29,VALID,0,VALID,104,VALID,0,VALID,24.493,VALID,67,VALID,0,
2010-12-16, 02:06:04,VALID,1006.26,VALID,0,VALID,104,VALID,0,VALID,24.4717,VALID,67,VALID,0,
2010-12-16, 02:07:04,VALID,1006.26,VALID,0,VALID,104,VALID,0.105969,VALID,24.493,VALID,356,VALID,0,
2010-12-16, 02:08:04,VALID,1006.23,VALID,0,VALID,104,VALID,0,VALID,24.493,VALID,356,VALID,0,
2010-12-16, 02:09:04,VALID,1006.24,VALID,0,VALID,103.985,VALID,0,VALID,24.493,VALID,356,VALID,0,
2010-12-16, 02:10:04,VALID,1006.23,VALID,0,VALID,104,VALID,0,VALID,24.493,VALID,356,VALID,0,
2010-12-16, 02:11:04,VALID,1006.22,VALID,0,VALID,104,VALID,0.105969,VALID,24.4911,VALID,356,VALID,0,
2010-12-16, 02:12:04,VALID,1006.22,VALID,0,VALID,104,VALID,0,VALID,24.4717,VALID,356,VALID,0,
2010-12-16, 02:13:04,VALID,1006.24,VALID,0,VALID,103.97,VALID,0,VALID,24.5125,VALID,356,VALID,0,
2010-12-16, 02:14:04,VALID,1006.24,VALID,0,VALID,103.977,VALID,0,VALID,24.4911,VALID,356,VALID,0,
2010-12-16, 02:15:04,VALID,1006.22,VALID,0,VALID,103.992,VALID,0,VALID,24.4717,VALID,356,VALID,0,
2010-12-16, 02:16:04,VALID,1006.24,VALID,0,VALID,104,VALID,0,VALID,24.4717,VALID,356,VALID,0,
2010-12-16, 02:17:04,VALID,1006.24,VALID,0,VALID,104,VALID,0,VALID,24.493,VALID,342,VALID,0.702734,
2010-12-16, 02:18:04,VALID,1006.24,VALID,0,VALID,104,VALID,0.105969,VALID,24.4522,VALID,307,VALID,0.288672,
2010-12-16, 02:19:04,VALID,1006.2,VALID,0,VALID,104,VALID,0,VALID,24.4735,VALID,307,VALID,0.176563,
2010-12-16, 02:20:04,VALID,1006.2,VALID,0,VALID,104,VALID,0,VALID,24.4522,VALID,307,VALID,0.249609,
2010-12-16, 02:21:04,VALID,1006.17,VALID,0,VALID,104,VALID,0.105969,VALID,24.4522,VALID,307,VALID,0.230859,
2010-12-16, 02:22:04,VALID,1006.13,VALID,0,VALID,104,VALID,0,VALID,24.4717,VALID,307,VALID,0,
2010-12-16, 02:23:04,VALID,1006.12,VALID,0,VALID,104,VALID,0,VALID,24.4522,VALID,307,VALID,0,
2010-12-16, 02:24:04,VALID,1006.1,VALID,0,VALID,104,VALID,0,VALID,24.4735,VALID,307,VALID,0,
2010-12-16, 02:25:04,VALID,1006.06,VALID,0,VALID,104,VALID,0,VALID,24.4522,VALID,307,VALID,0,
2010-12-16, 02:26:04,VALID,1006.04,VALID,0,VALID,104,VALID,0,VALID,24.454,VALID,344,VALID,0.448828,
2010-12-16, 02:27:04,VALID,1006.01,VALID,0,VALID,104,VALID,0.105969,VALID,24.4327,VALID,347,VALID,0,
2010-12-16, 02:28:04,VALID,1005.95,VALID,0,VALID,104,VALID,0.105969,VALID,24.4132,VALID,347,VALID,0.108984,
2010-12-16, 02:29:04,VALID,1005.91,VALID,0,VALID,104,VALID,0.105969,VALID,24.4132,VALID,347,VALID,0,
2010-12-16, 02:30:04,VALID,1005.85,VALID,0,VALID,104,VALID,0.105969,VALID,24.4327,VALID,347,VALID,0,
2010-12-16, 02:31:04,VALID,1005.82,VALID,0,VALID,104,VALID,0.105969,VALID,24.4132,VALID,347,VALID,0.00117188,
2010-12-16, 02:32:04,VALID,1005.82,VALID,0,VALID,104,VALID,0,VALID,24.4327,VALID,347,VALID,0,
2010-12-16, 02:33:04,VALID,1005.77,VALID,0,VALID,104,VALID,0,VALID,24.4345,VALID,347,VALID,0,
2010-12-16, 02:34:04,VALID,1005.73,VALID,0,VALID,104,VALID,0,VALID,24.4132,VALID,347,VALID,0,
2010-12-16, 02:35:04,VALID,1005.73,VALID,0,VALID,104,VALID,0,VALID,24.415,VALID,116,VALID,0.262109,
2010-12-16, 02:36:04,VALID,1005.75,VALID,0,VALID,104,VALID,0,VALID,24.3937,VALID,116,VALID,0.151172,
2010-12-16, 02:37:04,VALID,1005.7,VALID,0,VALID,104,VALID,0,VALID,24.415,VALID,116,VALID,0,
2010-12-16, 02:38:04,VALID,1005.73,VALID,0,VALID,104,VALID,0,VALID,24.3956,VALID,64,VALID,0.0242187,
2010-12-16, 02:39:04,VALID,1005.73,VALID,0,VALID,104,VALID,0,VALID,24.3956,VALID,64,VALID,0.314063,
2010-12-16, 02:40:04,VALID,1005.71,VALID,0,VALID,104,VALID,0,VALID,24.3956,VALID,64,VALID,0,
2010-12-16, 02:41:04,VALID,1005.72,VALID,0,VALID,104,VALID,0,VALID,24.3956,VALID,1,VALID,0.191797,
2010-12-16, 02:42:04,VALID,1005.73,VALID,0,VALID,104,VALID,0.105969,VALID,24.415,VALID,1,VALID,0.0878906,
2010-12-16, 02:43:04,VALID,1005.71,VALID,0,VALID,104,VALID,0,VALID,24.3937,VALID,4,VALID,0.486719,
2010-12-16, 02:44:04,VALID,1005.71,VALID,0,VALID,104,VALID,0,VALID,24.3937,VALID,7,VALID,0.0121094,
2010-12-16, 02:45:04,VALID,1005.7,VALID,0,VALID,104,VALID,0,VALID,24.3937,VALID,7,VALID,0,
2010-12-16, 02:46:04,VALID,1005.72,VALID,0,VALID,104,VALID,0,VALID,24.415,VALID,7,VALID,0,
2010-12-16, 02:47:04,VALID,1005.69,VALID,0,VALID,104,VALID,0,VALID,24.3937,VALID,7,VALID,0,
2010-12-16, 02:48:04,VALID,1005.69,VALID,0,VALID,104,VALID,0,VALID,24.415,VALID,7,VALID,0,
2010-12-16, 02:49:04,VALID,1005.71,VALID,0,VALID,104,VALID,0,VALID,24.3937,VALID,7,VALID,0,
2010-12-16, 02:50:04,VALID,1005.73,VALID,0,VALID,104,VALID,0.105969,VALID,24.3937,VALID,7,VALID,0,
2010-12-16, 02:51:04,VALID,1005.78,VALID,0,VALID,104,VALID,0,VALID,24.3937,VALID,7,VALID,0,
2010-12-16, 02:52:04,VALID,1005.78,VALID,0,VALID,104,VALID,0,VALID,24.3937,VALID,7,VALID,0,
2010-12-16, 02:53:04,VALID,1005.81,VALID,0,VALID,104,VALID,0,VALID,24.3742,VALID,7,VALID,0,
2010-12-16, 02:54:04,VALID,1005.82,VALID,0,VALID,104,VALID,0,VALID,24.415,VALID,7,VALID,0,
2010-12-16, 02:55:04,VALID,1005.85,VALID,0,VALID,104,VALID,0,VALID,24.3956,VALID,7,VALID,0,
2010-12-16, 02:56:04,VALID,1005.86,VALID,0,VALID,104,VALID,0,VALID,24.3742,VALID,7,VALID,0,
2010-12-16, 02:57:04,VALID,1005.85,VALID,0,VALID,104,VALID,0,VALID,24.3937,VALID,7,VALID,0,
2010-12-16, 02:58:04,VALID,1005.91,VALID,0,VALID,104,VALID,0,VALID,24.3547,VALID,7,VALID,0,
2010-12-16, 02:59:04,VALID,1005.93,VALID,0,VALID,103.985,VALID,0,VALID,24.3956,VALID,7,VALID,0,
2010-12-16, 03:00:04,VALID,1005.93,VALID,0,VALID,103.985,VALID,0,VALID,24.3761,VALID,7,VALID,0,
2010-12-16, 03:01:04,VALID,1005.95,VALID,0,VALID,103.97,VALID,0,VALID,24.3761,VALID,7,VALID,0,
2010-12-16, 03:02:04,VALID,1005.96,VALID,0,VALID,103.947,VALID,0,VALID,24.3761,VALID,7,VALID,0,
2010-12-16, 03:03:04,VALID,1005.96,VALID,0,VALID,103.924,VALID,0,VALID,24.3761,VALID,7,VALID,0,
2010-12-16, 03:04:04,VALID,1005.95,VALID,0,VALID,103.954,VALID,0,VALID,24.3566,VALID,7,VALID,0,
2010-12-16, 03:05:04,VALID,1005.99,VALID,0,VALID,103.954,VALID,0,VALID,24.3566,VALID,7,VALID,0,
2010-12-16, 03:06:04,VALID,1006,VALID,0,VALID,103.916,VALID,0,VALID,24.3761,VALID,7,VALID,0,
2010-12-16, 03:07:04,VALID,1006.03,VALID,0,VALID,103.909,VALID,0,VALID,24.3566,VALID,7,VALID,0,
2010-12-16, 03:08:04,VALID,1006.06,VALID,0,VALID,103.901,VALID,0,VALID,24.3761,VALID,7,VALID,0,
2010-12-16, 03:09:04,VALID,1006.06,VALID,0,VALID,103.893,VALID,0,VALID,24.3761,VALID,7,VALID,0,
2010-12-16, 03:10:04,VALID,1006.04,VALID,0,VALID,103.886,VALID,0,VALID,24.3761,VALID,7,VALID,0,
2010-12-16, 03:11:04,VALID,1006.06,VALID,0,VALID,103.893,VALID,0,VALID,24.3956,VALID,62,VALID,0.194141,
2010-12-16, 03:12:04,VALID,1006.07,VALID,0,VALID,103.893,VALID,0,VALID,24.3956,VALID,62,VALID,0,
2010-12-16, 03:13:04,VALID,1006.03,VALID,0,VALID,103.848,VALID,0,VALID,24.3742,VALID,62,VALID,0,
2010-12-16, 03:14:04,VALID,1006.03,VALID,0,VALID,103.84,VALID,0,VALID,24.3956,VALID,62,VALID,0,
2010-12-16, 03:15:04,VALID,1006.01,VALID,0,VALID,103.84,VALID,0,VALID,24.3761,VALID,61,VALID,0,
2010-12-16, 03:16:04,VALID,1006.02,VALID,0,VALID,103.809,VALID,0,VALID,24.3761,VALID,61,VALID,0,
2010-12-16, 03:17:04,VALID,1005.99,VALID,0,VALID,103.802,VALID,0,VALID,24.3761,VALID,61,VALID,0,
2010-12-16, 03:18:04,VALID,1005.98,VALID,0,VALID,103.817,VALID,0,VALID,24.3956,VALID,61,VALID,0,
2010-12-16, 03:19:04,VALID,1006,VALID,0,VALID,103.809,VALID,0,VALID,24.3742,VALID,61,VALID,0,
2010-12-16, 03:20:04,VALID,1005.95,VALID,0,VALID,103.787,VALID,0.105969,VALID,24.3742,VALID,61,VALID,0,
2010-12-16, 03:21:04,VALID,1005.94,VALID,0,VALID,103.787,VALID,0,VALID,24.3742,VALID,61,VALID,0,
2010-12-16, 03:22:04,VALID,1005.97,VALID,0,VALID,103.779,VALID,0,VALID,24.3547,VALID,61,VALID,0,
2010-12-16, 03:23:04,VALID,1005.94,VALID,0,VALID,103.787,VALID,0,VALID,24.3566,VALID,61,VALID,0,
2010-12-16, 03:24:04,VALID,1005.95,VALID,0,VALID,103.779,VALID,0,VALID,24.3176,VALID,61,VALID,0,
2010-12-16, 03:25:04,VALID,1005.96,VALID,0,VALID,103.809,VALID,0,VALID,24.3194,VALID,61,VALID,0,
2010-12-16, 03:26:04,VALID,1005.94,VALID,0,VALID,103.825,VALID,0,VALID,24.3,VALID,61,VALID,0,
2010-12-16, 03:27:04,VALID,1005.97,VALID,0,VALID,103.832,VALID,0,VALID,24.2786,VALID,61,VALID,0,
2010-12-16, 03:28:04,VALID,1005.94,VALID,0,VALID,103.87,VALID,0,VALID,24.2396,VALID,61,VALID,0,
2010-12-16, 03:29:04,VALID,1005.95,VALID,0,VALID,103.84,VALID,0,VALID,24.2396,VALID,61,VALID,0,
2010-12-16, 03:30:04,VALID,1005.93,VALID,0,VALID,103.878,VALID,0,VALID,24.2202,VALID,61,VALID,0,
2010-12-16, 03:31:04,VALID,1005.91,VALID,0,VALID,103.916,VALID,0,VALID,24.2007,VALID,61,VALID,0,
2010-12-16, 03:32:04,VALID,1005.9,VALID,0,VALID,103.931,VALID,0,VALID,24.1617,VALID,61,VALID,0,
2010-12-16, 03:33:04,VALID,1005.87,VALID,0,VALID,103.947,VALID,0,VALID,24.1422,VALID,61,VALID,0,
2010-12-16, 03:34:04,VALID,1005.86,VALID,0,VALID,103.962,VALID,0,VALID,24.1635,VALID,61,VALID,0,
2010-12-16, 03:35:04,VALID,1005.87,VALID,0,VALID,103.977,VALID,0,VALID,24.1422,VALID,61,VALID,0,
2010-12-16, 03:36:04,VALID,1005.89,VALID,0,VALID,104,VALID,0,VALID,24.1635,VALID,61,VALID,0,
2010-12-16, 03:37:04,VALID,1005.89,VALID,0,VALID,104,VALID,0,VALID,24.1635,VALID,61,VALID,0,
2010-12-16, 03:38:04,VALID,1005.88,VALID,0,VALID,104,VALID,0,VALID,24.1635,VALID,61,VALID,0,
2010-12-16, 03:39:04,VALID,1005.88,VALID,0,VALID,104,VALID,0,VALID,24.144,VALID,61,VALID,0,
2010-12-16, 03:40:04,VALID,1005.86,VALID,0,VALID,104,VALID,0,VALID,24.1227,VALID,43,VALID,0.205859,
2010-12-16, 03:41:04,VALID,1005.85,VALID,0,VALID,104,VALID,0,VALID,24.1032,VALID,41,VALID,0.400391,
2010-12-16, 03:42:04,VALID,1005.84,VALID,0,VALID,104,VALID,0.105969,VALID,24.0819,VALID,41,VALID,0.0261719,
2010-12-16, 03:43:04,VALID,1005.82,VALID,0,VALID,104,VALID,0,VALID,24.0837,VALID,41,VALID,0.0339844,
2010-12-16, 03:44:04,VALID,1005.78,VALID,0,VALID,104,VALID,0,VALID,24.0837,VALID,41,VALID,0,
2010-12-16, 03:45:04,VALID,1005.79,VALID,0,VALID,104,VALID,0,VALID,24.0837,VALID,41,VALID,0,
2010-12-16, 03:46:04,VALID,1005.78,VALID,0,VALID,104,VALID,0,VALID,24.0643,VALID,41,VALID,0.114453,
2010-12-16, 03:47:04,VALID,1005.82,VALID,0,VALID,104,VALID,0,VALID,24.0643,VALID,41,VALID,0.00429688,
2010-12-16, 03:48:04,VALID,1005.79,VALID,0,VALID,104,VALID,0,VALID,24.0661,VALID,41,VALID,0.409766,
2010-12-16, 03:49:04,VALID,1005.82,VALID,0,VALID,103.985,VALID,0,VALID,24.0448,VALID,41,VALID,0.154297,
2010-12-16, 03:50:04,VALID,1005.84,VALID,0,VALID,103.939,VALID,0,VALID,24.0253,VALID,41,VALID,0,
2010-12-16, 03:51:04,VALID,1005.83,VALID,0,VALID,103.893,VALID,0,VALID,24.0058,VALID,43,VALID,0.532031,
2010-12-16, 03:52:04,VALID,1005.87,VALID,0,VALID,103.809,VALID,0,VALID,24.0058,VALID,22,VALID,0.0515625,
2010-12-16, 03:53:04,VALID,1005.91,VALID,0,VALID,103.733,VALID,0,VALID,24.0058,VALID,19,VALID,0,
2010-12-16, 03:54:04,VALID,1005.9,VALID,0,VALID,103.68,VALID,0,VALID,24.0058,VALID,19,VALID,0,
2010-12-16, 03:55:04,VALID,1005.93,VALID,0,VALID,103.642,VALID,0,VALID,24.004,VALID,19,VALID,0,